Weather History for San Diego, CA

Change the Weather History Date:

Wednesday, November 28, 2012

  Actual Average Record
Temperature  
Mean Temperature 63 °F 58 °F  
Max Temperature 66 °F 67 °F 82 °F (1980)
Min Temperature 59 °F 51 °F 36 °F (1919)
Degree Days  
Heating Degree Days 2 7  
Month to date heating degree days 90 112  
Since 1 July heating degree days 94 133  
Cooling Degree Days 0 0  
Month to date cooling degree days 16 11  
Year to date cooling degree days 899 718  
Growing Degree Days 12 (Base 50)    
Moisture  
Dew Point 52 °F    
Average Humidity 68    
Maximum Humidity 72    
Minimum Humidity 63    
Precipitation  
Precipitation 0.00 in 0.04 in 1.32 in (1981)
Month to date precipitation 0.18 0.93  
Year to date precipitation 4.34 8.73  
Since 1 July precipitation 0.88 1.70  
Snow  
Snow 0.00 in - - ()
Month to date snowfall 0.0  
Year to date snowfall 0.0  
Since 1 July snowfall 0.0  
Snow Depth 0.00 in    
Sea Level Pressure  
Sea Level Pressure 30.18 in    
Wind  
Wind Speed 3 mph (SSW)    
Max Wind Speed 14 mph    
Max Gust Speed 16 mph    
Visibility 9 miles    
Events      
T = Trace of Precipitation, MM = Missing Value Source: NWS Daily Summary

Daily Weather History Graph

Daily Weather History Graph

Search for Another Location

Airport:

Trip Planner

Search our weather history database for the weather conditions in past years. The results will help you decide how hot, cold, wet, or windy it might be!

Date:

Astronomy

Nov. 28, 2012 Rise Set
Actual Time 6:30 AM PST 4:42 PM PST
Civil Twilight 6:04 AM PST 5:09 PM PST
Nautical Twilight 5:33 AM PST 5:39 PM PST
Astronomical Twilight 5:04 AM PST 6:09 PM PST
Moon 5:01 PM PST (11/28) 6:32 AM PST (11/28)
Length of Visible Light 11h 05m
Length of Day
10h 11m
Full, 100% of the Moon is Illuminated
Nov 28
Full
Dec 6
Last Quarter
Dec 13
New
Dec 19
First Quarter
Dec 28
Full

Hourly Weather History & Observations

Time (PST) Temp. Dew Point Humidity Pressure Visibility Wind Dir Wind Speed Gust Speed Precip Events Conditions
12:51 AM 61.0 °F 52.0 °F 72% 30.14 in 10.0 mi Calm Calm - N/A   Overcast
1:51 AM 61.0 °F 51.1 °F 70% 30.14 in 10.0 mi Calm Calm - N/A   Overcast
2:51 AM 60.1 °F 51.1 °F 72% 30.13 in 10.0 mi Calm Calm - N/A   Overcast
3:51 AM 60.1 °F 51.1 °F 72% 30.14 in 9.0 mi South 4.6 mph - N/A   Overcast
4:51 AM 60.1 °F 51.1 °F 72% 30.13 in 7.0 mi South 3.5 mph - N/A   Overcast
5:51 AM 60.1 °F 51.1 °F 72% 30.13 in 6.0 mi ESE 6.9 mph - N/A   Haze
6:51 AM 60.1 °F 51.1 °F 72% 30.15 in 4.0 mi Calm Calm - N/A   Haze
7:51 AM 60.1 °F 52.0 °F 75% 30.18 in 4.0 mi South 3.5 mph - N/A   Haze
8:51 AM 60.1 °F 51.1 °F 72% 30.23 in 5.0 mi West 5.8 mph - N/A   Haze
9:51 AM 62.1 °F 51.1 °F 67% 30.22 in 7.0 mi Calm Calm - N/A   Mostly Cloudy
10:47 AM 62.6 °F 51.8 °F 68% 30.20 in 7.0 mi Calm Calm - N/A   Scattered Clouds
10:51 AM 63.0 °F 51.1 °F 65% 30.19 in 7.0 mi Calm Calm - N/A   Scattered Clouds
11:51 AM 64.9 °F 51.1 °F 61% 30.17 in 7.0 mi WSW 9.2 mph - N/A   Partly Cloudy
12:51 PM 63.0 °F 51.1 °F 65% 30.16 in 10.0 mi WSW 6.9 mph - N/A   Partly Cloudy
1:51 PM 64.0 °F 51.1 °F 63% 30.16 in 10.0 mi West 4.6 mph - N/A   Partly Cloudy
2:51 PM 64.0 °F 51.1 °F 63% 30.16 in 10.0 mi West 5.8 mph - N/A   Partly Cloudy
3:51 PM 64.0 °F 51.1 °F 63% 30.16 in 10.0 mi Calm Calm - N/A   Mostly Cloudy
4:51 PM 62.1 °F 52.0 °F 70% 30.18 in 10.0 mi WSW 6.9 mph - N/A   Mostly Cloudy
5:51 PM 61.0 °F 52.0 °F 72% 30.19 in 10.0 mi Calm Calm - N/A   Mostly Cloudy
6:51 PM 61.0 °F 52.0 °F 72% 30.21 in 10.0 mi Calm Calm - N/A   Mostly Cloudy
7:51 PM 61.0 °F 53.1 °F 75% 30.22 in 10.0 mi Calm Calm - N/A   Mostly Cloudy
8:51 PM 61.0 °F 53.1 °F 75% 30.23 in 10.0 mi South 5.8 mph - N/A   Mostly Cloudy
9:51 PM 61.0 °F 54.0 °F 78% 30.22 in 10.0 mi SSW 4.6 mph - N/A   Mostly Cloudy
10:51 PM 61.0 °F 53.1 °F 75% 30.23 in 10.0 mi SSE 4.6 mph - N/A   Mostly Cloudy
11:51 PM 61.0 °F 52.0 °F 72% 30.22 in 10.0 mi Calm Calm - N/A   Scattered Clouds